Location: Newark
(7.0858°N, 171.3717°E)
Time: 16:16:09
(UTC+00:00)

Vanguard 1 Rocket - Visible Passes

Search period start: 26 November 2020 00:00
Search period end: 06 December 2020 00:00
Orbit: 656 x 4221 km, 34.3° (Epoch: 25 November)

Date Brightness Start Highest point End Pass type
(mag) Time Alt. Az. Time Alt. Az. Time Alt. Az.
26 Nov 11.1 07:52:09 10° S 08:02:18 18° SE 08:11:35 14° ESE visible
26 Nov 10.5 10:14:18 10° SW 10:28:50 53° S 10:28:50 53° S visible
26 Nov 11.4 12:43:05 10° WSW 13:27:56 18° NE 13:31:00 10° NE visible
26 Nov 10.7 15:45:14 33° NNW 15:45:14 33° NNW 15:58:50 10° NE visible
26 Nov 10.5 18:06:57 10° NW 18:18:56 21° N 18:26:53 10° NE visible
27 Nov 10.6 09:03:23 10° SSW 09:19:22 40° SE 09:21:15 40° SE visible
27 Nov 10.9 11:29:15 10° SW 12:20:44 - NE 11:38:30 39° SW visible
27 Nov 10.9 14:38:00 31° NNE 14:38:00 31° NNE 14:46:36 10° NE visible
27 Nov 10.7 16:55:17 19° NW 17:03:40 24° N 17:14:38 10° NE visible
28 Nov 10.9 07:53:48 10° S 08:05:26 24° SE 08:13:44 19° ESE visible
28 Nov 10.4 10:16:54 10° SW 10:30:59 60° S 10:30:59 60° S visible
28 Nov 11.4 12:46:35 10° WSW 13:30:45 17° NE 13:33:48 10° NE visible
28 Nov 10.8 15:48:01 30° NNW 15:48:01 30° NNW 16:02:19 10° NE visible
28 Nov 10.5 18:10:19 10° NW 18:23:16 23° N 18:31:29 10° NE visible
29 Nov 11.1 06:48:35 10° SSE 06:51:44 11° SE 06:55:13 10° SE visible
29 Nov 10.4 09:05:46 10° SSW 09:21:53 49° SE 09:23:32 49° SE visible
29 Nov 10.9 11:32:21 10° WSW 12:23:28 - NE 11:40:47 36° WSW visible
29 Nov 11.0 14:40:45 29° NNE 14:40:45 29° NNE 14:49:43 10° NE visible
29 Nov 10.7 16:58:01 17° NW 17:08:06 25° N 17:18:54 10° NE visible
30 Nov 10.7 07:55:49 10° SSW 08:08:15 31° SE 08:16:07 25° ESE visible
30 Nov 10.3 10:19:43 10° SW 10:33:23 64° SW 10:33:23 64° SW visible
30 Nov 11.4 12:50:24 10° W 13:33:26 17° NE 13:36:39 10° NE visible
30 Nov 10.9 15:50:42 28° NNW 15:51:45 28° NNW 16:06:06 10° NE visible
01 Dec 10.9 06:47:56 10° SSE 06:55:04 15° SE 07:04:28 10° ESE visible
01 Dec 10.2 09:08:19 10° SW 09:24:19 60° SE 09:26:01 59° ESE visible
01 Dec 11.0 11:35:41 10° WSW 12:26:07 - NE 11:43:18 32° WSW visible
01 Dec 11.0 14:43:23 28° NNE 14:43:23 28° NNE 14:53:04 10° NE visible
01 Dec 10.7 17:00:40 16° NW 17:12:32 26° N 17:23:22 10° NE visible
02 Dec 10.4 07:58:03 10° SSW 08:10:51 39° SE 08:18:43 31° E visible
02 Dec 10.3 10:22:43 10° SW 10:35:59 64° WSW 10:35:59 64° WSW visible
02 Dec 11.4 13:36:03 17° NE 13:36:03 17° NE 13:39:38 10° NE visible
02 Dec 10.9 15:53:20 27° NNW 15:56:12 28° N 16:10:13 10° NE visible
03 Dec 10.7 06:49:14 10° S 06:58:04 21° SE 07:10:57 10° E visible
03 Dec 10.0 09:11:03 10° SW 09:26:48 72° SE 09:28:43 70° ESE visible
03 Dec 11.1 11:39:19 10° WSW 12:28:44 - NE 11:46:00 28° W visible
03 Dec 11.0 14:46:00 28° NNE 14:46:00 28° NNE 14:56:42 10° NE visible
03 Dec 10.6 17:03:16 16° NW 17:16:53 30° N 17:27:53 10° ENE visible
04 Dec 10.1 08:00:30 10° SSW 08:13:20 48° SE 08:21:30 36° E visible
04 Dec 10.3 10:25:57 10° WSW 10:38:47 59° W 10:38:47 59° W visible
04 Dec 11.4 13:38:40 18° NE 13:38:40 18° NE 13:42:49 10° NE visible
04 Dec 10.9 15:55:56 27° NNW 16:00:44 29° N 16:14:35 10° NE visible
05 Dec 10.4 06:51:08 10° S 07:00:48 28° SE 07:14:18 13° E visible
05 Dec 9.9 09:13:59 10° SW 09:29:24 85° SE 09:31:35 78° ENE visible
05 Dec 11.2 11:43:13 10° W 12:31:20 - NE 11:48:53 24° W visible
05 Dec 11.0 14:48:37 29° NNE 14:48:37 29° NNE 15:00:40 10° NE visible
05 Dec 10.5 17:05:53 16° NW 17:21:04 35° NNE 17:32:19 10° ENE visible
